{"data":{"norad_id":64846,"intl_designator":"2025-152E","name":"STARLINK-34736","alt_names":[],"object_type":"PAYLOAD","status":"ACTIVE","operator":null,"country":"US","launch_date":"2025-07-19","launch_site_code":"AFWTR","launch_vehicle":null,"mission":null,"orbit_class":"UNKNOWN","rcs_meters":null,"size_class":null,"mass_kg":null,"dimensions":null,"purposes":["comms"],"wikipedia_slug":null,"has_3d_model":false,"image_url":null,"decayed_at":null,"tle_current":{"epoch":"2026-05-25T03:32:14.571168Z","epoch_age_seconds":56338,"freshness":"FRESH","line1":"1 64846U 25152E   26145.14739087  .00005468  00000+0  38260-3 0  9994","line2":"2 64846  97.4486   0.5068 0001909  87.4264 272.7182 15.05660119 46921","mean_motion":15.05660119,"eccentricity":0.0001909,"inclination_deg":97.4486,"raan_deg":0.5068,"arg_perigee_deg":87.4264,"mean_anomaly_deg":272.7182,"bstar":0.0003826,"rev_number":4692,"period_min":95.639114155218,"perigee_km":548.15763307637,"apogee_km":550.80259729095,"semimajor_km":6927.6171151837,"source":"CELESTRAK","updated_at":"2026-05-25T13:38:20.611940Z"}}}